Home > Weather > Mons > Past weeks

Flag for Belgium Past Weather in Mons, Belgium — Yesterday and Last 2 Weeks

Now
66 °F

Broken clouds.


Feels Like: 66 °F
Forecast: 57 / 67 °F
Wind: 7 mph from Southwest

Location: Chievres

Current Time: Jun 28, 2016 at 8:53:36 PM

Latest Report: Jun 28, 2016 at 8:25 PM


Visibility: N/A

Pressure: 29.89 "Hg

Humidity: 68%

Dew Point: 55 °F

Location of MonsLocation

Past Weather in Mons — Graph

°F

Mons Temperature Yesterday

Maximum temperature yesterday: 68 °F (at 4:55 PM)
Minimum temperature yesterday: 54 °F (at 12:55 AM)
Average temperature yesterday: 60 °F

High & Low Weather Summary for the Past Weeks

 TemperatureHumidityPressure
High86 °F (Jun 23, 4:55 PM)100% (Jun 15, 5:25 AM)30.30 "Hg (Jun 15, 5:25 AM)
Low48 °F (Jun 16, 2:25 AM)49% (Jun 25, 7:55 PM)29.47 "Hg (Jun 14, 5:25 PM)
Average61 °F85%29.95 "Hg
* Reported Jun 13 7:55 PM — Jun 28 7:25 PM, Mons, Weather by CustomWeather, © 2016

Note: Actual official high and low records may vary slightly from our data, if they occured in-between our weather recording intervals... More about our weather records

Advertising

Mons Weather History for the Previous 24 Hours

Scroll right to see more
 ConditionsComfort  
Time TempWeatherWind HumidityBarometerVisibility
7:25 PM
Tue, Jun 28
68 °FPartly sunny.8 mph60%29.92 "HgN/A
6:55 PM68 °FPartly sunny.10 mph64%29.92 "HgN/A
6:25 PM68 °FPartly sunny.9 mph64%29.92 "HgN/A
5:55 PM68 °FBroken clouds.12 mph60%29.95 "HgN/A
5:25 PM70 °FPartly sunny.8 mph60%29.95 "HgN/A
4:55 PM68 °FBroken clouds.12 mph56%29.98 "HgN/A
4:25 PM68 °FPartly sunny.12 mph56%29.98 "HgN/A
3:55 PM68 °FPartly sunny.12 mph56%29.98 "HgN/A
3:25 PM68 °FPartly sunny.12 mph56%30.01 "HgN/A
2:55 PM68 °FPartly sunny.8 mph60%30.01 "HgN/A
2:25 PM66 °FBroken clouds.12 mph64%30.01 "HgN/A
1:55 PM68 °FBroken clouds.10 mph60%30.01 "HgN/A
12:55 PM66 °FPartly sunny.9 mph64%30.04 "HgN/A
12:25 PM66 °FBroken clouds.10 mph64%30.04 "HgN/A
11:55 AM64 °FBroken clouds.9 mph73%30.04 "HgN/A
11:25 AM64 °FScattered clouds.9 mph73%30.07 "HgN/A
10:55 AM63 °FPartly sunny.9 mph77%30.07 "HgN/A
9:55 AM61 °FPartly sunny.6 mph77%30.07 "HgN/A
9:25 AM59 °FPartly sunny.7 mph88%30.07 "HgN/A
8:55 AM59 °FBroken clouds.7 mph82%30.07 "HgN/A
8:25 AM57 °FPartly sunny.7 mph88%30.07 "HgN/A
7:55 AM57 °FPartly sunny.7 mph88%30.07 "HgN/A
6:55 AM55 °FPartly sunny.6 mph94%30.07 "HgN/A
6:25 AM55 °FPartly cloudy.7 mph94%30.09 "HgN/A
5:55 AM54 °FOvercast.6 mph100%30.07 "HgN/A
5:25 AM55 °FPassing clouds.6 mph94%30.07 "HgN/A
4:55 AM55 °FPassing clouds.6 mph94%30.07 "HgN/A
3:55 AM55 °FPartly cloudy.5 mph94%30.07 "HgN/A
3:25 AM55 °FPassing clouds.6 mph94%30.09 "HgN/A
2:55 AM55 °FPassing clouds.5 mph94%30.09 "HgN/A
2:25 AM57 °FPassing clouds.7 mph94%30.09 "HgN/A
1:55 AM57 °FPartly cloudy.5 mph94%30.09 "HgN/A
1:25 AM57 °FPassing clouds.5 mph94%30.12 "HgN/A
12:55 AM59 °FPassing clouds.5 mph88%30.12 "HgN/A
12:25 AM59 °FPassing clouds.6 mph88%30.12 "HgN/A
11:55 PM
Mon, Jun 27
59 °FPartly cloudy.5 mph88%30.12 "HgN/A
11:25 PM61 °FPassing clouds.5 mph88%30.12 "HgN/A
10:55 PM61 °FPartly sunny.3 mph94%30.09 "HgN/A
10:25 PM61 °FPartly sunny.3 mph94%30.12 "HgN/A
9:55 PM61 °FBroken clouds.3 mph94%30.09 "HgN/A
9:25 PM63 °FPartly sunny.6 mph88%30.09 "HgN/A
8:55 PM64 °FBroken clouds.7 mph78%30.09 "HgN/A
8:25 PM64 °FBroken clouds.2 mph83%30.09 "HgN/A
Weather by CustomWeather, © 2016

See weather overviewHow to use our weather pages